• In Austria
  • List of Countries
  • For 7 days
  • Water Temperature
  • Satellite Maps
  • Weather Map
  • News
  • Weather Widgets
  • user-avatar
    Login

    Hourly Weather Harare

    Today, 24 June, Sunday

    Time Temperature Precipitation Wind Pressure Humidity
    00:00 +12°C° 0 mm 1 mps 640 mmHg 63%
    01:00 +12°C° 0 mm 1 mps 640 mmHg 65%
    02:00 +11°C° 0 mm 1 mps 640 mmHg 68%
    03:00 +11°C° 0 mm 1 mps 640 mmHg 70%
    04:00 +10°C° 0 mm 1 mps 639 mmHg 73%
    05:00 +10°C° 0 mm 1 mps 639 mmHg 75%
    06:00 +10°C° 0 mm 0 mps 640 mmHg 70%
    07:00 +12°C° 0 mm 0 mps 641 mmHg 64%
    08:00 +13°C° 0 mm 0 mps 642 mmHg 59%
    09:00 +18°C° 0 mm 1 mps 642 mmHg 50%
    10:00 +20°C° 0 mm 1 mps 643 mmHg 42%
    11:00 +23°C° 0 mm 1 mps 643 mmHg 34%
    12:00 +24°C° 0 mm 1 mps 643 mmHg 31%
    13:00 +24°C° 0 mm 1 mps 643 mmHg 29%
    14:00 +25°C° 0 mm 1 mps 642 mmHg 26%
    15:00 +24°C° 0 mm 1 mps 642 mmHg 28%
    16:00 +22°C° 0 mm 1 mps 641 mmHg 31%
    17:00 +21°C° 0 mm 1 mps 641 mmHg 33%
    18:00 +20°C° 0 mm 1 mps 641 mmHg 35%
    19:00 +19°C° 0 mm 1 mps 641 mmHg 37%
    20:00 +17°C° 0 mm 2 mps 641 mmHg 39%
    21:00 +16°C° 0 mm 2 mps 641 mmHg 45%
    22:00 +15°C° 0 mm 2 mps 641 mmHg 52%
    23:00 +14°C° 0 mm 2 mps 641 mmHg 58%

    Tomorrow, 25 June, Monday

    Time Temperature Precipitation Wind Pressure Humidity
    00:00 +13°C° 0 mm 2 mps 641 mmHg 66%
    01:00 +12°C° 0 mm 1 mps 640 mmHg 73%
    02:00 +12°C° 0 mm 1 mps 640 mmHg 80%
    03:00 +11°C° 0 mm 1 mps 640 mmHg 83%
    04:00 +11°C° 0 mm 1 mps 640 mmHg 85%
    05:00 +10°C° 0 mm 1 mps 640 mmHg 87%
    06:00 +12°C° 0 mm 1 mps 640 mmHg 80%
    07:00 +13°C° 0 mm 1 mps 641 mmHg 74%
    08:00 +14°C° 0 mm 1 mps 642 mmHg 67%
    09:00 +18°C° 0 mm 1 mps 642 mmHg 57%
    10:00 +20°C° 0 mm 1 mps 643 mmHg 47%
    11:00 +23°C° 0 mm 1 mps 644 mmHg 37%
    12:00 +23°C° 0 mm 1 mps 643 mmHg 34%
    13:00 +24°C° 0 mm 1 mps 643 mmHg 31%
    14:00 +24°C° 0 mm 1 mps 642 mmHg 28%
    15:00 +23°C° 0 mm 1 mps 642 mmHg 30%
    16:00 +22°C° 0 mm 1 mps 641 mmHg 32%
    17:00 +21°C° 0 mm 1 mps 641 mmHg 35%
    18:00 +19°C° 0 mm 1 mps 641 mmHg 37%
    19:00 +16°C° 0 mm 1 mps 641 mmHg 40%
    20:00 +15°C° 0 mm 1 mps 641 mmHg 42%
    21:00 +14°C° 0 mm 1 mps 641 mmHg 44%
    22:00 +13°C° 0 mm 1 mps 641 mmHg 46%
    23:00 +12°C° 0 mm 1 mps 641 mmHg 48%

    Day after tomorrow, 26 June, Tuesday

    Time Temperature Precipitation Wind Pressure Humidity
    00:00 +12°C° 0 mm 1 mps 641 mmHg 51%
    01:00 +11°C° 0 mm 1 mps 640 mmHg 55%
    02:00 +11°C° 0 mm 1 mps 640 mmHg 58%
    03:00 +10°C° 0 mm 1 mps 640 mmHg 60%
    04:00 +10°C° 0 mm 1 mps 640 mmHg 62%
    05:00 +9°C° 0 mm 1 mps 640 mmHg 64%
    06:00 +11°C° 0 mm 1 mps 641 mmHg 59%
    07:00 +12°C° 0 mm 1 mps 641 mmHg 54%
    08:00 +14°C° 0 mm 1 mps 642 mmHg 49%
    09:00 +18°C° 0 mm 1 mps 643 mmHg 42%
    10:00 +20°C° 0 mm 1 mps 644 mmHg 34%
    11:00 +23°C° 0 mm 1 mps 644 mmHg 27%
    12:00 +24°C° 0 mm 1 mps 644 mmHg 25%
    13:00 +24°C° 0 mm 1 mps 643 mmHg 23%
    14:00 +25°C° 0 mm 2 mps 643 mmHg 21%
    15:00 +23°C° 0 mm 2 mps 642 mmHg 24%
    16:00 +21°C° 0 mm 2 mps 641 mmHg 26%
    17:00 +20°C° 0 mm 2 mps 641 mmHg 28%
    18:00 +18°C° 0 mm 2 mps 641 mmHg 32%
    19:00 +16°C° 0 mm 2 mps 641 mmHg 36%
    20:00 +14°C° 0 mm 2 mps 641 mmHg 40%
    21:00 +13°C° 0 mm 2 mps 641 mmHg 42%
    22:00 +13°C° 0 mm 2 mps 641 mmHg 44%
    23:00 +12°C° 0 mm 2 mps 641 mmHg 46%

    27 June, Wednesday

    Time Temperature Precipitation Wind Pressure Humidity
    00:00 +11°C° 0 mm 1 mps 641 mmHg 48%
    01:00 +11°C° 0 mm 1 mps 640 mmHg 50%
    02:00 +10°C° 0 mm 1 mps 640 mmHg 52%
    03:00 +10°C° 0 mm 1 mps 640 mmHg 53%
    04:00 +10°C° 0 mm 1 mps 640 mmHg 55%
    05:00 +9°C° 0 mm 1 mps 640 mmHg 57%
    06:00 +11°C° 0 mm 1 mps 641 mmHg 53%
    07:00 +12°C° 0 mm 1 mps 642 mmHg 49%
    08:00 +13°C° 0 mm 1 mps 642 mmHg 45%
    09:00 +16°C° 0 mm 1 mps 643 mmHg 39%
    10:00 +20°C° 0 mm 1 mps 644 mmHg 32%
    11:00 +23°C° 0 mm 1 mps 644 mmHg 26%
    12:00 +23°C° 0 mm 1 mps 644 mmHg 24%
    13:00 +24°C° 0 mm 2 mps 643 mmHg 22%
    14:00 +25°C° 0 mm 2 mps 642 mmHg 20%
    15:00 +23°C° 0 mm 2 mps 642 mmHg 23%
    16:00 +21°C° 0 mm 2 mps 641 mmHg 25%
    17:00 +20°C° 0 mm 2 mps 641 mmHg 27%
    18:00 +18°C° 0 mm 2 mps 641 mmHg 31%
    19:00 +16°C° 0 mm 2 mps 641 mmHg 35%
    20:00 +14°C° 0 mm 2 mps 641 mmHg 39%
    21:00 +13°C° 0 mm 2 mps 641 mmHg 41%
    22:00 +13°C° 0 mm 2 mps 641 mmHg 43%
    23:00 +12°C° 0 mm 2 mps 641 mmHg 46%

    28 June, Thursday

    Time Temperature Precipitation Wind Pressure Humidity
    00:00 +12°C° 0 mm 2 mps 641 mmHg 50%
    01:00 +10°C° 0 mm 2 mps 640 mmHg 54%
    02:00 +11°C° 0 mm 1 mps 640 mmHg 58%
    03:00 +10°C° 0 mm 1 mps 640 mmHg 62%
    04:00 +10°C° 0 mm 1 mps 640 mmHg 66%
    05:00 +10°C° 0 mm 1 mps 640 mmHg 70%
    06:00 +11°C° 0 mm 1 mps 641 mmHg 66%
    07:00 +12°C° 0 mm 1 mps 642 mmHg 62%
    08:00 +14°C° 0 mm 1 mps 643 mmHg 59%
    09:00 +16°C° 0 mm 2 mps 643 mmHg 50%
    10:00 +19°C° 0 mm 2 mps 644 mmHg 41%
    11:00 +21°C° 0 mm 2 mps 644 mmHg 32%
    12:00 +23°C° 0 mm 2 mps 644 mmHg 29%
    13:00 +24°C° 0 mm 2 mps 643 mmHg 26%
    14:00 +24°C° 0 mm 2 mps 643 mmHg 23%
    15:00 +23°C° 0 mm 2 mps 642 mmHg 25%
    16:00 +21°C° 0 mm 2 mps 642 mmHg 28%
    17:00 +20°C° 0 mm 2 mps 642 mmHg 31%
    18:00 +18°C° 0 mm 2 mps 642 mmHg 36%
    19:00 +16°C° 0 mm 2 mps 641 mmHg 41%
    20:00 +14°C° 0 mm 2 mps 641 mmHg 47%
    21:00 +14°C° 0 mm 2 mps 641 mmHg 49%
    22:00 +12°C° 0 mm 3 mps 641 mmHg 51%
    23:00 +11°C° 0 mm 3 mps 641 mmHg 53%

    29 June, Friday

    Time Temperature Precipitation Wind Pressure Humidity
    00:00 +12°C° 0 mm 2 mps 641 mmHg 56%
    01:00 +10°C° 0 mm 2 mps 640 mmHg 60%
    02:00 +10°C° 0 mm 2 mps 640 mmHg 63%
    03:00 +9°C° 0 mm 2 mps 640 mmHg 66%
    04:00 +9°C° 0 mm 2 mps 640 mmHg 68%
    05:00 +9°C° 0 mm 1 mps 640 mmHg 71%
    06:00 +11°C° 0 mm 1 mps 640 mmHg 67%
    07:00 +12°C° 0 mm 1 mps 641 mmHg 62%
    08:00 +13°C° 0 mm 2 mps 642 mmHg 57%
    09:00 +16°C° 0 mm 1 mps 642 mmHg 49%
    10:00 +20°C° 0 mm 1 mps 643 mmHg 41%
    11:00 +22°C° 0 mm 1 mps 643 mmHg 33%
    12:00 +23°C° 0 mm 1 mps 643 mmHg 30%
    13:00 +24°C° 0 mm 1 mps 642 mmHg 27%
    14:00 +25°C° 0 mm 1 mps 642 mmHg 25%
    15:00 +24°C° 0 mm 1 mps 641 mmHg 27%
    16:00 +22°C° 0 mm 1 mps 641 mmHg 30%
    17:00 +21°C° 0 mm 1 mps 640 mmHg 32%
    18:00 +19°C° 0 mm 1 mps 640 mmHg 37%
    19:00 +16°C° 0 mm 1 mps 640 mmHg 42%
    20:00 +14°C° 0 mm 1 mps 640 mmHg 46%
    21:00 +14°C° 0 mm 1 mps 640 mmHg 49%
    22:00 +13°C° 0 mm 1 mps 640 mmHg 52%
    23:00 +12°C° 0 mm 1 mps 640 mmHg 55%
    Show more